TimeEDT,TemperatureF,Dew PointF,Humidity,Sea Level PressureIn,VisibilityMPH,Wind Direction,Wind SpeedMPH,Gust SpeedMPH,PrecipitationIn,Events,Conditions,WindDirDegrees,DateUTC
12:54 AM,71.1,69.1,93,29.85,9.0,Calm,Calm,-,N/A,,Clear,0,2012-09-05 04:54:00
1:54 AM,70.0,68.0,93,29.86,8.0,NE,3.5,-,N/A,,Clear,50,2012-09-05 05:54:00
2:54 AM,70.0,68.0,93,29.86,8.0,Calm,Calm,-,N/A,,Clear,0,2012-09-05 06:54:00
3:54 AM,71.1,64.9,81,29.86,10.0,NE,12.7,-,N/A,,Scattered Clouds,40,2012-09-05 07:54:00
4:54 AM,68.0,64.9,90,29.83,10.0,SE,6.9,-,N/A,,Clear,130,2012-09-05 08:54:00
5:54 AM,68.0,64.0,87,29.84,10.0,ESE,5.8,-,N/A,,Clear,110,2012-09-05 09:54:00
6:54 AM,68.0,64.9,90,29.85,10.0,Calm,Calm,-,N/A,,Clear,0,2012-09-05 10:54:00
7:54 AM,68.0,66.0,93,29.85,8.0,Calm,Calm,-,N/A,,Clear,0,2012-09-05 11:54:00
8:54 AM,73.0,68.0,84,29.85,8.0,Calm,Calm,-,N/A,,Clear,0,2012-09-05 12:54:00
9:54 AM,73.9,70.0,87,29.86,8.0,WNW,4.6,-,N/A,,Mostly Cloudy,290,2012-09-05 13:54:00
10:10 AM,71.6,66.2,83,29.90,10.0,NNW,20.7,28.8,N/A,Thunderstorm,Thunderstorm,340,2012-09-05 14:10:00
10:33 AM,68.0,64.4,88,29.91,1.8,North,18.4,35.7,0.16,Rain-Thunderstorm,Heavy Rain,350,2012-09-05 14:33:00
10:41 AM,68.0,64.4,88,29.91,2.0,North,18.4,26.5,0.18,Rain,Rain,360,2012-09-05 14:41:00
10:49 AM,68.0,64.4,88,29.91,10.0,NNW,12.7,-,0.18,Rain,Light Rain,340,2012-09-05 14:49:00
11:01 AM,69.8,64.4,83,29.90,10.0,North,11.5,19.6,N/A,,Mostly Cloudy,360,2012-09-05 15:01:00
11:54 AM,72.0,64.9,78,29.86,10.0,ENE,4.6,-,N/A,,Clear,70,2012-09-05 15:54:00
12:54 PM,71.1,64.0,78,29.75,10.0,South,19.6,27.6,N/A,,Mostly Cloudy,170,2012-09-05 16:54:00
1:54 PM,73.0,64.9,76,29.82,10.0,Calm,Calm,-,N/A,,Clear,0,2012-09-05 17:54:00
2:54 PM,73.9,66.0,76,29.81,10.0,SSE,4.6,-,N/A,,Clear,160,2012-09-05 18:54:00
3:54 PM,73.9,66.9,79,29.81,10.0,SSE,4.6,-,N/A,,Clear,150,2012-09-05 19:54:00
4:54 PM,75.9,66.0,71,29.83,10.0,SSW,3.5,-,N/A,,Clear,200,2012-09-05 20:54:00
5:54 PM,75.9,66.0,71,29.81,10.0,SSE,6.9,-,N/A,,Clear,150,2012-09-05 21:54:00
6:54 PM,75.9,64.9,69,29.81,10.0,Calm,Calm,-,N/A,,Clear,0,2012-09-05 22:54:00
7:54 PM,75.0,64.9,71,29.82,10.0,Calm,Calm,-,N/A,,Clear,0,2012-09-05 23:54:00
8:54 PM,72.0,64.0,76,29.84,10.0,SSW,4.6,-,N/A,,Clear,210,2012-09-06 00:54:00
9:54 PM,70.0,64.0,81,29.85,10.0,SW,3.5,-,N/A,,Clear,220,2012-09-06 01:54:00
10:54 PM,66.0,64.0,93,29.86,10.0,West,4.6,-,N/A,,Clear,260,2012-09-06 02:54:00
11:54 PM,66.9,64.9,93,29.86,10.0,West,4.6,-,N/A,,Clear,260,2012-09-06 03:54:00